Location: Deuil
(48.9767°N, 2.3272°E)
Time: 18:38:03
(UTC+00:00)

USA 238 DEB - Pass Details

Date: 24 October 2021
Orbit: 978 x 1234 km, 63.4° (Epoch: 25 November)

Event Time Altitude Azimuth Distance (km) Brightness Sun altitude
Rises 20:04:59 0° 315° (NW) 3,898 7.5 -33.3°
Reaches altitude 10° 20:07:43 10° 321° (NW) 2,977 6.7 -33.7°
Enters shadow 20:13:24 44° 9° (N) 1,548 4.5 -34.5°
